Time,TemperatureF,DewpointF,PressureIn,WindDirection,WindDirectionDegrees,WindSpeedMPH,WindSpeedGustMPH,Humidity,HourlyPrecipIn,Conditions,Clouds,dailyrainin,SolarRadiationWatts/m^2,SoftwareType,DateUTC
2013-07-04 00:02:00,80.1,63.0,29.72,NNW,347,0.0,0.0,56,0.00,CLR,SCT,0.00,0.0,WeatherDisplay:10.37,2013-07-04 07:02:00,
2013-07-04 00:07:00,79.8,63.7,29.72,NNW,347,2.3,2.3,58,0.00,CLR,SCT,0.00,0.0,WeatherDisplay:10.37,2013-07-04 07:07:00,
2013-07-04 00:12:00,79.6,64.0,29.72,NNW,347,0.0,0.0,59,0.00,CLR,SCT,0.00,0.0,WeatherDisplay:10.37,2013-07-04 07:12:00,
2013-07-04 00:17:00,79.4,64.3,29.72,NNW,347,0.0,0.0,60,0.00,CLR,SCT,0.00,0.0,WeatherDisplay:10.37,2013-07-04 07:17:00,
2013-07-04 00:22:00,79.1,64.0,29.72,NNW,347,0.0,0.0,60,0.00,CLR,SCT,0.00,0.0,WeatherDisplay:10.37,2013-07-04 07:22:00,
2013-07-04 00:27:00,78.9,63.8,29.72,NNW,347,0.0,0.0,60,0.00,CLR,SCT,0.00,0.0,WeatherDisplay:10.37,2013-07-04 07:27:00,
2013-07-04 00:32:00,78.9,64.3,29.72,NNW,347,0.0,0.0,61,0.00,CLR,SCT,0.00,0.0,WeatherDisplay:10.37,2013-07-04 07:32:00,
2013-07-04 00:37:00,78.9,64.3,29.72,NNW,347,0.0,0.0,61,0.00,CLR,SCT,0.00,0.0,WeatherDisplay:10.37,2013-07-04 07:37:00,
2013-07-04 00:42:00,78.7,64.6,29.72,NNW,347,0.0,0.0,62,0.00,CLR,SCT,0.00,0.0,WeatherDisplay:10.37,2013-07-04 07:42:00,
2013-07-04 00:47:00,78.7,64.1,29.72,NNW,347,0.0,0.0,61,0.00,CLR,SCT,0.00,0.0,WeatherDisplay:10.37,2013-07-04 07:47:00,
2013-07-04 00:52:00,78.8,63.7,29.72,NNW,347,0.0,0.0,60,0.00,CLR,SCT,0.00,0.0,WeatherDisplay:10.37,2013-07-04 07:52:00,
2013-07-04 00:57:00,78.8,63.7,29.72,NNW,347,1.2,0.0,60,0.00,CLR,SCT,0.00,0.0,WeatherDisplay:10.37,2013-07-04 07:57:00,
2013-07-04 01:02:00,78.9,63.4,29.71,NNW,347,0.0,0.0,59,0.00,CLR,SCT,0.00,0.0,WeatherDisplay:10.37,2013-07-04 08:02:00,
2013-07-04 01:07:00,79.0,63.9,29.72,North,355,2.3,2.3,60,0.00,CLR,SCT,0.00,0.0,WeatherDisplay:10.37,2013-07-04 08:07:00,
2013-07-04 01:12:00,79.0,63.9,29.71,North,355,0.0,0.0,60,0.00,CLR,SCT,0.00,0.0,WeatherDisplay:10.37,2013-07-04 08:12:00,
2013-07-04 01:17:00,79.1,63.5,29.71,North,355,0.0,0.0,59,0.00,CLR,SCT,0.00,0.0,WeatherDisplay:10.37,2013-07-04 08:17:00,
2013-07-04 01:22:00,79.3,63.7,29.71,North,355,0.0,0.0,59,0.00,CLR,SCT,0.00,0.0,WeatherDisplay:10.37,2013-07-04 08:22:00,
2013-07-04 01:27:00,79.8,63.2,29.71,North,355,0.0,0.0,57,0.00,CLR,SCT,0.00,0.0,WeatherDisplay:10.37,2013-07-04 08:27:00,
2013-07-04 01:32:00,79.9,63.3,29.71,North,355,0.0,0.0,57,0.00,CLR,SCT,0.00,0.0,WeatherDisplay:10.37,2013-07-04 08:32:00,
2013-07-04 01:37:00,79.7,63.1,29.71,North,355,1.2,1.2,57,0.00,CLR,SCT,0.00,0.0,WeatherDisplay:10.37,2013-07-04 08:37:00,
2013-07-04 01:42:00,79.6,63.5,29.71,North,355,0.0,0.0,58,0.00,CLR,SCT,0.00,0.0,WeatherDisplay:10.37,2013-07-04 08:42:00,
2013-07-04 01:47:00,79.5,63.4,29.71,North,355,0.0,0.0,58,0.00,CLR,SCT,0.00,0.0,WeatherDisplay:10.37,2013-07-04 08:47:00,
2013-07-04 01:52:00,79.5,63.4,29.71,North,355,1.2,1.2,58,0.00,CLR,SCT,0.00,0.0,WeatherDisplay:10.37,2013-07-04 08:52:00,
2013-07-04 01:57:00,79.4,62.3,29.70,North,355,0.0,0.0,56,0.00,CLR,SCT,0.00,0.0,WeatherDisplay:10.37,2013-07-04 08:57:00,
2013-07-04 02:02:00,79.2,63.6,29.70,North,355,1.2,0.0,59,0.00,CLR,SCT,0.00,0.0,WeatherDisplay:10.37,2013-07-04 09:02:00,
2013-07-04 02:07:00,79.1,63.1,29.71,North,355,1.2,1.2,58,0.00,CLR,SCT,0.00,0.0,WeatherDisplay:10.37,2013-07-04 09:07:00,
2013-07-04 02:12:00,78.8,62.8,29.71,North,355,1.2,1.2,58,0.00,CLR,SCT,0.00,0.0,WeatherDisplay:10.37,2013-07-04 09:12:00,
2013-07-04 02:17:00,78.9,61.9,29.71,North,355,0.0,0.0,56,0.00,CLR,SCT,0.00,0.0,WeatherDisplay:10.37,2013-07-04 09:17:00,
2013-07-04 02:22:00,78.9,61.9,29.71,North,355,2.3,2.3,56,0.00,CLR,SCT,0.00,0.0,WeatherDisplay:10.37,2013-07-04 09:22:00,
2013-07-04 02:27:00,79.2,61.6,29.71,North,355,0.0,0.0,55,0.00,CLR,SCT,0.00,0.0,WeatherDisplay:10.37,2013-07-04 09:27:00,
2013-07-04 02:32:00,79.3,61.2,29.71,North,360,2.0,2.0,54,0.00,CLR,SCT,0.00,0.0,WeatherDisplay:10.37,2013-07-04 09:32:00,
2013-07-04 02:37:00,78.9,62.9,29.71,North,360,0.0,0.0,58,0.00,CLR,SCT,0.00,0.0,WeatherDisplay:10.37,2013-07-04 09:37:00,
2013-07-04 02:42:00,78.7,62.2,29.71,North,360,0.0,0.0,57,0.00,CLR,SCT,0.00,0.0,WeatherDisplay:10.37,2013-07-04 09:42:00,
2013-07-04 02:47:00,78.4,62.4,29.71,North,360,0.0,0.0,58,0.00,CLR,SCT,0.00,0.0,WeatherDisplay:10.37,2013-07-04 09:47:00,
2013-07-04 02:52:00,78.3,61.3,29.71,North,360,1.0,1.0,56,0.00,CLR,SCT,0.00,0.0,WeatherDisplay:10.37,2013-07-04 09:52:00,
2013-07-04 02:57:00,78.1,62.6,29.71,North,360,0.0,0.0,59,0.00,CLR,SCT,0.00,0.0,WeatherDisplay:10.37,2013-07-04 09:57:00,
2013-07-04 03:02:00,77.9,62.4,29.71,North,360,0.0,0.0,59,0.00,CLR,SCT,0.00,0.0,WeatherDisplay:10.37,2013-07-04 10:02:00,
2013-07-04 03:07:00,77.8,62.3,29.71,NNE,27,3.5,3.5,59,0.00,CLR,SCT,0.00,0.0,WeatherDisplay:10.37,2013-07-04 10:07:00,
2013-07-04 03:12:00,77.6,62.1,29.70,NNE,27,1.0,1.0,59,0.00,CLR,SCT,0.00,0.0,WeatherDisplay:10.37,2013-07-04 10:12:00,
2013-07-04 03:17:00,77.5,62.0,29.70,NNE,27,2.3,2.3,59,0.00,CLR,SCT,0.00,0.0,WeatherDisplay:10.37,2013-07-04 10:17:00,
2013-07-04 03:22:00,77.4,62.4,29.70,NNE,27,0.0,0.0,60,0.00,CLR,SCT,0.00,0.0,WeatherDisplay:10.37,2013-07-04 10:22:00,
2013-07-04 03:27:00,77.3,62.8,29.69,NNE,27,2.3,2.3,61,0.00,CLR,SCT,0.00,0.0,WeatherDisplay:10.37,2013-07-04 10:27:00,
2013-07-04 03:32:00,77.1,63.1,29.69,NNE,27,1.2,0.0,62,0.00,CLR,SCT,0.00,0.0,WeatherDisplay:10.37,2013-07-04 10:32:00,
2013-07-04 03:37:00,77.0,63.0,29.69,NNE,27,1.2,0.0,62,0.00,CLR,SCT,0.00,0.0,WeatherDisplay:10.37,2013-07-04 10:37:00,
2013-07-04 03:42:00,76.9,62.9,29.69,NNE,27,1.2,0.0,62,0.00,CLR,SCT,0.00,0.0,WeatherDisplay:10.37,2013-07-04 10:42:00,
2013-07-04 03:47:00,76.7,61.8,29.68,NNE,27,0.0,0.0,60,0.00,CLR,SCT,0.00,0.0,WeatherDisplay:10.37,2013-07-04 10:47:00,
2013-07-04 03:52:00,76.6,62.1,29.69,NNE,27,0.0,0.0,61,0.00,CLR,SCT,0.00,0.0,WeatherDisplay:10.37,2013-07-04 10:52:00,
2013-07-04 03:57:00,76.5,62.5,29.69,NNE,25,2.3,2.3,62,0.00,CLR,SCT,0.00,0.0,WeatherDisplay:10.37,2013-07-04 10:57:00,
2013-07-04 04:02:00,77.1,60.2,29.68,NNE,31,3.5,3.5,56,0.00,CLR,SCT,0.00,0.0,WeatherDisplay:10.37,2013-07-04 11:02:00,
2013-07-04 04:07:00,77.5,60.1,29.68,NNE,30,2.0,2.0,55,0.00,CLR,SCT,0.00,0.0,WeatherDisplay:10.37,2013-07-04 11:07:00,
2013-07-04 04:12:00,77.6,60.2,29.68,NNE,16,3.5,3.5,55,0.00,CLR,SCT,0.00,0.0,WeatherDisplay:10.37,2013-07-04 11:12:00,
2013-07-04 04:18:00,78.1,60.1,29.68,NNE,17,2.3,2.3,54,0.00,CLR,SCT,0.00,0.0,WeatherDisplay:10.37,2013-07-04 11:18:00,
2013-07-04 04:23:00,78.3,59.2,29.68,NNE,17,2.3,2.3,52,0.00,CLR,SCT,0.00,0.0,WeatherDisplay:10.37,2013-07-04 11:23:00,
2013-07-04 04:28:00,78.4,59.3,29.67,NNE,17,0.0,0.0,52,0.00,CLR,SCT,0.00,0.0,WeatherDisplay:10.37,2013-07-04 11:28:00,
2013-07-04 04:33:00,78.3,59.8,29.67,NNE,17,1.2,0.0,53,0.00,CLR,SCT,0.00,0.0,WeatherDisplay:10.37,2013-07-04 11:33:00,
2013-07-04 04:38:00,77.8,60.3,29.68,NNE,17,0.0,0.0,55,0.00,CLR,SCT,0.00,0.0,WeatherDisplay:10.37,2013-07-04 11:38:00,
2013-07-04 04:43:00,77.8,60.3,29.68,NNE,17,0.0,0.0,55,0.00,CLR,SCT,0.00,0.0,WeatherDisplay:10.37,2013-07-04 11:43:00,
2013-07-04 04:48:00,77.5,60.6,29.68,NNE,17,0.0,0.0,56,0.00,CLR,SCT,0.00,0.0,WeatherDisplay:10.37,2013-07-04 11:48:00,
2013-07-04 04:53:00,77.3,60.9,29.68,NNE,17,0.0,0.0,57,0.00,CLR,SCT,0.00,0.0,WeatherDisplay:10.37,2013-07-04 11:53:00,
2013-07-04 04:58:00,77.3,59.9,29.68,NNE,16,0.0,0.2,55,0.00,CLR,SCT,0.00,0.0,WeatherDisplay:10.37,2013-07-04 11:58:00,
2013-07-04 05:03:00,77.7,59.2,29.68,NNE,16,2.3,0.0,53,0.00,CLR,SCT,0.00,0.0,WeatherDisplay:10.37,2013-07-04 12:03:00,
2013-07-04 05:08:00,77.9,59.9,29.69,NNE,16,2.3,2.3,54,0.00,CLR,SCT,0.00,0.0,WeatherDisplay:10.37,2013-07-04 12:08:00,
2013-07-04 05:13:00,77.8,59.8,29.69,NNE,16,0.0,0.0,54,0.00,CLR,SCT,0.00,0.0,WeatherDisplay:10.37,2013-07-04 12:13:00,
2013-07-04 05:18:00,77.8,59.3,29.69,NNE,16,1.2,1.2,53,0.00,CLR,SCT,0.00,0.0,WeatherDisplay:10.37,2013-07-04 12:18:00,
2013-07-04 05:23:00,77.7,59.2,29.69,NNE,16,0.0,0.0,53,0.00,CLR,SCT,0.00,0.0,WeatherDisplay:10.37,2013-07-04 12:23:00,
2013-07-04 05:28:00,77.8,59.3,29.70,NNE,16,2.3,2.3,53,0.00,CLR,SCT,0.00,0.0,WeatherDisplay:10.37,2013-07-04 12:28:00,
2013-07-04 05:33:00,77.7,59.7,29.70,NNE,16,1.2,1.2,54,0.00,CLR,SCT,0.00,0.0,WeatherDisplay:10.37,2013-07-04 12:33:00,
2013-07-04 05:38:00,77.8,59.8,29.70,NNE,16,1.2,1.2,54,0.00,CLR,SCT,0.00,0.0,WeatherDisplay:10.37,2013-07-04 12:38:00,
2013-07-04 05:43:00,78.0,60.5,29.70,NNE,16,1.2,1.2,55,0.00,CLR,SCT,0.00,0.0,WeatherDisplay:10.37,2013-07-04 12:43:00,
2013-07-04 05:48:00,77.8,60.8,29.70,NNE,16,0.0,0.0,56,0.00,CLR,SCT,0.00,0.0,WeatherDisplay:10.37,2013-07-04 12:48:00,
2013-07-04 05:53:00,77.6,61.2,29.70,NNE,16,0.0,0.0,57,0.00,CLR,SCT,0.00,5.0,WeatherDisplay:10.37,2013-07-04 12:53:00,
2013-07-04 05:58:00,77.3,61.4,29.70,NNE,16,0.0,0.0,58,0.00,CLR,SCT,0.00,7.0,WeatherDisplay:10.37,2013-07-04 12:58:00,
2013-07-04 06:03:00,76.9,62.0,29.70,NNE,16,0.0,0.0,60,0.00,CLR,SCT,0.00,11.0,WeatherDisplay:10.37,2013-07-04 13:03:00,
2013-07-04 06:08:00,77.1,61.2,29.70,NNE,16,1.2,1.2,58,0.00,CLR,SCT,0.00,14.0,WeatherDisplay:10.37,2013-07-04 13:08:00,
2013-07-04 06:13:00,77.4,60.5,29.69,NNE,13,0.0,0.0,56,0.00,CLR,SCT,0.00,19.0,WeatherDisplay:10.37,2013-07-04 13:13:00,
2013-07-04 06:18:00,77.8,60.8,29.69,NNE,13,0.0,0.0,56,0.00,CLR,SCT,0.00,19.0,WeatherDisplay:10.37,2013-07-04 13:18:00,
2013-07-04 06:23:00,77.9,59.9,29.69,NNE,13,0.0,0.0,54,0.00,CLR,SCT,0.00,19.0,WeatherDisplay:10.37,2013-07-04 13:23:00,
2013-07-04 06:28:00,78.3,59.8,29.69,NNE,13,0.0,0.0,53,0.00,CLR,SCT,0.00,19.0,WeatherDisplay:10.37,2013-07-04 13:28:00,
2013-07-04 06:33:00,78.0,60.5,29.69,NNE,13,0.0,0.0,55,0.00,CLR,SCT,0.00,23.0,WeatherDisplay:10.37,2013-07-04 13:33:00,
2013-07-04 06:38:00,77.7,61.3,29.70,NNE,13,0.0,0.0,57,0.00,CLR,SCT,0.00,32.0,WeatherDisplay:10.37,2013-07-04 13:38:00,
2013-07-04 06:43:00,77.5,61.6,29.70,NNE,13,0.0,0.0,58,0.00,CLR,SCT,0.00,40.0,WeatherDisplay:10.37,2013-07-04 13:43:00,
2013-07-04 06:48:00,77.6,61.7,29.70,NNE,13,1.2,1.2,58,0.00,CLR,SCT,0.00,47.0,WeatherDisplay:10.37,2013-07-04 13:48:00,
2013-07-04 06:53:00,77.8,62.3,29.69,NNE,13,0.0,0.0,59,0.00,CLR,SCT,0.00,56.0,WeatherDisplay:10.37,2013-07-04 13:53:00,
2013-07-04 06:58:00,78.1,62.1,29.70,NNE,13,0.0,0.0,58,0.00,CLR,SCT,0.00,67.0,WeatherDisplay:10.37,2013-07-04 13:58:00,
2013-07-04 07:03:00,78.3,62.8,29.70,NNE,13,0.0,0.0,59,0.00,CLR,SCT,0.00,88.0,WeatherDisplay:10.37,2013-07-04 14:03:00,
2013-07-04 07:08:00,78.7,62.7,29.70,NNE,13,0.0,0.0,58,0.00,CLR,SCT,0.00,95.0,WeatherDisplay:10.37,2013-07-04 14:08:00,
2013-07-04 07:13:00,79.0,63.4,29.70,NNE,13,1.0,0.0,59,0.00,CLR,SCT,0.00,86.0,WeatherDisplay:10.37,2013-07-04 14:13:00,
2013-07-04 07:18:00,79.2,64.1,29.70,NNE,13,0.0,0.0,60,0.00,CLR,SCT,0.00,86.0,WeatherDisplay:10.37,2013-07-04 14:18:00,
2013-07-04 07:23:00,79.3,64.2,29.70,NNE,13,0.0,0.0,60,0.00,CLR,SCT,0.00,91.0,WeatherDisplay:10.37,2013-07-04 14:23:00,
2013-07-04 07:28:00,79.6,65.0,29.70,NNE,13,0.0,0.0,61,0.00,CLR,SCT,0.00,88.0,WeatherDisplay:10.37,2013-07-04 14:28:00,
2013-07-04 07:33:00,79.8,65.2,29.70,NNE,13,1.2,1.2,61,0.00,CLR,SCT,0.00,90.0,WeatherDisplay:10.37,2013-07-04 14:33:00,
2013-07-04 07:38:00,80.1,65.9,29.70,NNE,13,0.0,0.0,62,0.00,CLR,SCT,0.00,86.0,WeatherDisplay:10.37,2013-07-04 14:38:00,
2013-07-04 07:43:00,80.4,66.2,29.70,NNE,13,0.0,0.0,62,0.00,CLR,SCT,0.00,70.0,WeatherDisplay:10.37,2013-07-04 14:43:00,
2013-07-04 07:48:00,80.4,65.2,29.70,NNE,13,1.2,1.2,60,0.00,CLR,SCT,0.00,86.0,WeatherDisplay:10.37,2013-07-04 14:48:00,
2013-07-04 07:53:00,80.6,65.4,29.70,NNE,28,3.5,3.5,60,0.00,CLR,SCT,0.00,74.0,WeatherDisplay:10.37,2013-07-04 14:53:00,
2013-07-04 07:58:00,80.7,65.5,29.69,NNE,28,1.2,1.2,60,0.00,CLR,SCT,0.00,65.0,WeatherDisplay:10.37,2013-07-04 14:58:00,
2013-07-04 08:03:00,80.7,65.0,29.69,NNE,28,1.2,1.2,59,0.00,CLR,SCT,0.00,76.0,WeatherDisplay:10.37,2013-07-04 15:03:00,
2013-07-04 08:08:00,80.5,65.8,29.69,NNE,28,1.0,1.0,61,0.00,CLR,SCT,0.00,116.0,WeatherDisplay:10.37,2013-07-04 15:08:00,
2013-07-04 08:13:00,80.7,66.9,29.69,NNE,28,2.0,2.0,63,0.00,CLR,SCT,0.00,417.0,WeatherDisplay:10.37,2013-07-04 15:13:00,
2013-07-04 08:18:00,81.7,66.5,29.69,NNE,28,1.2,1.2,60,0.00,CLR,SCT,0.00,285.0,WeatherDisplay:10.37,2013-07-04 15:18:00,
2013-07-04 08:23:00,83.0,66.2,29.69,North,355,1.2,0.0,57,0.00,CLR,SCT,0.00,156.0,WeatherDisplay:10.37,2013-07-04 15:23:00,
2013-07-04 08:28:00,83.4,67.6,29.68,North,355,2.3,2.3,59,0.00,CLR,SCT,0.00,90.0,WeatherDisplay:10.37,2013-07-04 15:28:00,
2013-07-04 08:33:00,83.0,66.7,29.67,North,355,2.3,2.3,58,0.00,BKN,SCT,0.00,84.0,WeatherDisplay:10.37,2013-07-04 15:33:00,
2013-07-04 08:38:00,82.8,66.0,29.67,North,355,2.3,2.3,57,0.00,BKN,SCT,0.00,77.0,WeatherDisplay:10.37,2013-07-04 15:38:00,
2013-07-04 08:43:00,82.5,65.7,29.67,NNE,30,3.0,3.0,57,0.00,BKN,SCT,0.00,67.0,WeatherDisplay:10.37,2013-07-04 15:43:00,
2013-07-04 08:48:00,82.3,65.5,29.67,North,10,2.3,2.3,57,0.00,BKN,SCT,0.00,84.0,WeatherDisplay:10.37,2013-07-04 15:48:00,
2013-07-04 08:53:00,82.5,63.6,29.67,NNW,341,2.0,2.0,53,0.00,BKN,SCT,0.00,418.0,WeatherDisplay:10.37,2013-07-04 15:53:00,
2013-07-04 08:58:00,85.1,63.8,29.68,NNW,338,1.0,1.0,49,0.00,BKN,SCT,0.00,483.0,WeatherDisplay:10.37,2013-07-04 15:58:00,
2013-07-04 09:03:00,86.9,62.4,29.68,NNE,15,4.6,4.6,44,0.00,BKN,SCT,0.00,485.0,WeatherDisplay:10.37,2013-07-04 16:03:00,
2013-07-04 09:08:00,87.5,63.5,29.67,North,360,3.5,3.5,45,0.00,BKN,SCT,0.00,517.0,WeatherDisplay:10.37,2013-07-04 16:08:00,
2013-07-04 09:13:00,88.0,64.0,29.67,NE,55,3.5,3.5,45,0.00,BKN,SCT,0.00,104.0,WeatherDisplay:10.37,2013-07-04 16:13:00,
2013-07-04 09:18:00,87.4,64.7,29.67,North,355,3.5,3.5,47,0.00,BKN,SCT,0.00,105.0,WeatherDisplay:10.37,2013-07-04 16:18:00,
2013-07-04 09:23:00,86.7,65.3,29.67,North,355,0.0,0.1,49,0.00,BKN,SCT,0.00,559.0,WeatherDisplay:10.37,2013-07-04 16:23:00,
2013-07-04 09:28:00,88.4,65.0,29.67,North,355,1.2,1.2,46,0.00,BKN,SCT,0.00,536.0,WeatherDisplay:10.37,2013-07-04 16:28:00,
2013-07-04 09:34:00,89.2,64.4,29.67,NE,44,2.3,2.3,44,0.00,-RA,SCT,0.00,454.0,WeatherDisplay:10.37,2013-07-04 16:34:00,
2013-07-04 09:39:00,89.6,65.4,29.67,North,5,1.2,1.2,45,0.00,-RA,SCT,0.00,578.0,WeatherDisplay:10.37,2013-07-04 16:39:00,
2013-07-04 09:44:00,90.5,64.9,29.67,NE,44,3.5,3.5,43,0.00,-RA,SCT,0.00,589.0,WeatherDisplay:10.37,2013-07-04 16:44:00,
2013-07-04 09:49:00,91.2,64.9,29.67,North,9,2.3,2.3,42,0.00,-RA,SCT,0.00,605.0,WeatherDisplay:10.37,2013-07-04 16:49:00,
2013-07-04 09:54:00,92.6,66.2,29.66,ENE,60,2.3,2.3,42,0.00,-RA,SCT,0.00,619.0,WeatherDisplay:10.37,2013-07-04 16:54:00,
2013-07-04 09:59:00,93.2,66.0,29.66,NE,56,3.5,3.5,41,0.00,-RA,SCT,0.00,631.0,WeatherDisplay:10.37,2013-07-04 16:59:00,
2013-07-04 10:04:00,93.8,65.8,29.66,NE,51,2.3,2.3,40,0.00,-RA,SCT,0.00,642.0,WeatherDisplay:10.37,2013-07-04 17:04:00,
2013-07-04 10:09:00,94.2,68.3,29.66,NE,42,1.0,1.0,43,0.00,-RA,SCT,0.00,654.0,WeatherDisplay:10.37,2013-07-04 17:09:00,
2013-07-04 10:14:00,94.7,65.1,29.66,South,183,2.3,0.0,38,0.00,-RA,SCT,0.00,663.0,WeatherDisplay:10.37,2013-07-04 17:14:00,
2013-07-04 10:19:00,95.0,64.6,29.66,SE,138,2.3,2.3,37,0.00,-RA,SCT,0.00,677.0,WeatherDisplay:10.37,2013-07-04 17:19:00,
2013-07-04 10:24:00,95.3,64.9,29.66,SE,146,1.0,1.0,37,0.00,-RA,SCT,0.00,689.0,WeatherDisplay:10.37,2013-07-04 17:24:00,
2013-07-04 10:29:00,96.0,64.7,29.66,SSE,155,1.2,0.0,36,0.00,-RA,SCT,0.00,701.0,WeatherDisplay:10.37,2013-07-04 17:29:00,
2013-07-04 10:34:00,97.0,61.4,29.66,NNE,16,1.2,1.2,31,0.00,SCT,,0.00,714.0,WeatherDisplay:10.37,2013-07-04 17:34:00,
2013-07-04 10:39:00,97.4,65.2,29.66,NNE,16,0.0,0.2,35,0.00,SCT,,0.00,726.0,WeatherDisplay:10.37,2013-07-04 17:39:00,
2013-07-04 10:44:00,98.0,65.7,29.66,ESE,118,1.2,1.2,35,0.00,SCT,,0.00,735.0,WeatherDisplay:10.37,2013-07-04 17:44:00,
2013-07-04 10:49:00,98.0,64.0,29.66,NE,37,2.3,2.3,33,0.00,SCT,,0.00,749.0,WeatherDisplay:10.37,2013-07-04 17:49:00,
2013-07-04 10:54:00,98.7,66.3,29.66,NE,37,0.0,0.0,35,0.00,SCT,,0.00,759.0,WeatherDisplay:10.37,2013-07-04 17:54:00,
2013-07-04 10:59:00,98.9,64.8,29.66,SW,232,2.3,2.3,33,0.00,SCT,,0.00,768.0,WeatherDisplay:10.37,2013-07-04 17:59:00,
2013-07-04 11:04:00,99.0,64.0,29.66,WNW,294,2.3,2.3,32,0.00,SCT,,0.00,780.0,WeatherDisplay:10.37,2013-07-04 18:04:00,
2013-07-04 11:09:00,99.6,64.5,29.66,SSE,160,2.3,2.3,32,0.00,SCT,,0.00,789.0,WeatherDisplay:10.37,2013-07-04 18:09:00,
2013-07-04 11:14:00,99.5,65.3,29.66,SSE,161,0.0,0.0,33,0.00,SCT,,0.00,800.0,WeatherDisplay:10.37,2013-07-04 18:14:00,
2013-07-04 11:19:00,99.7,67.2,29.66,South,171,1.2,1.2,35,0.00,SCT,,0.00,810.0,WeatherDisplay:10.37,2013-07-04 18:19:00,
2013-07-04 11:24:00,100.4,65.2,29.66,South,184,1.2,1.2,32,0.00,SCT,,0.00,819.0,WeatherDisplay:10.37,2013-07-04 18:24:00,
2013-07-04 11:29:00,100.2,65.9,29.66,South,183,1.2,1.2,33,0.00,SCT,,0.00,826.0,WeatherDisplay:10.37,2013-07-04 18:29:00,
2013-07-04 11:34:00,100.4,66.1,29.66,South,185,1.2,1.2,33,0.00,SCT,,0.00,837.0,WeatherDisplay:10.37,2013-07-04 18:34:00,
2013-07-04 11:39:00,100.6,64.5,29.66,North,5,2.3,2.3,31,0.00,SCT,,0.00,842.0,WeatherDisplay:10.37,2013-07-04 18:39:00,
2013-07-04 11:44:00,101.0,64.8,29.66,North,5,2.3,2.3,31,0.00,SCT,,0.00,851.0,WeatherDisplay:10.37,2013-07-04 18:44:00,
2013-07-04 11:49:00,101.0,64.8,29.66,NNE,26,1.0,1.0,31,0.00,SCT,,0.00,856.0,WeatherDisplay:10.37,2013-07-04 18:49:00,
2013-07-04 11:54:00,101.1,64.9,29.66,NNE,13,2.3,2.3,31,0.00,SCT,,0.00,861.0,WeatherDisplay:10.37,2013-07-04 18:54:00,
2013-07-04 11:59:00,101.4,66.1,29.66,NNE,19,0.0,0.0,32,0.00,SCT,,0.00,870.0,WeatherDisplay:10.37,2013-07-04 18:59:00,
2013-07-04 12:04:00,102.0,67.5,29.66,SSE,163,1.2,1.2,33,0.00,SCT,,0.00,875.0,WeatherDisplay:10.37,2013-07-04 19:04:00,
2013-07-04 12:09:00,102.2,64.9,29.66,SSE,164,3.5,3.5,30,0.00,SCT,,0.00,881.0,WeatherDisplay:10.37,2013-07-04 19:09:00,
2013-07-04 12:14:00,102.3,65.0,29.66,SSE,164,1.2,1.2,30,0.00,SCT,,0.00,886.0,WeatherDisplay:10.37,2013-07-04 19:14:00,
2013-07-04 12:19:00,102.6,68.0,29.66,SSE,164,0.0,0.1,33,0.00,SCT,,0.00,775.0,WeatherDisplay:10.37,2013-07-04 19:19:00,
2013-07-04 12:24:00,102.5,66.1,29.66,SSW,213,2.3,2.3,31,0.00,SCT,,0.00,846.0,WeatherDisplay:10.37,2013-07-04 19:24:00,
2013-07-04 12:29:00,102.7,64.4,29.66,SW,225,0.0,0.0,29,0.00,SCT,,0.00,896.0,WeatherDisplay:10.37,2013-07-04 19:29:00,
2013-07-04 12:34:00,102.7,64.4,29.66,SW,225,0.0,0.1,29,0.00,SCT,,0.00,904.0,WeatherDisplay:10.37,2013-07-04 19:34:00,
2013-07-04 12:39:00,102.7,65.3,29.66,SW,225,0.0,0.0,30,0.00,SCT,,0.00,907.0,WeatherDisplay:10.37,2013-07-04 19:39:00,
2013-07-04 12:44:00,103.2,65.8,29.65,SSW,196,2.3,0.0,30,0.00,SCT,,0.00,905.0,WeatherDisplay:10.37,2013-07-04 19:44:00,
2013-07-04 12:49:00,103.7,61.0,29.65,SSE,162,3.5,3.5,25,0.00,SCT,,0.00,907.0,WeatherDisplay:10.37,2013-07-04 19:49:00,
2013-07-04 12:54:00,103.4,65.9,29.65,South,183,2.0,2.0,30,0.00,SCT,,0.00,907.0,WeatherDisplay:10.37,2013-07-04 19:54:00,
2013-07-04 12:59:00,103.9,63.3,29.65,SSW,208,3.0,3.0,27,0.00,SCT,,0.00,909.0,WeatherDisplay:10.37,2013-07-04 19:59:00,
2013-07-04 13:04:00,104.5,62.8,29.65,South,171,3.0,3.0,26,0.00,SCT,,0.00,909.0,WeatherDisplay:10.37,2013-07-04 20:04:00,
2013-07-04 13:09:00,104.1,62.4,29.65,North,9,1.2,1.2,26,0.00,SCT,,0.00,912.0,WeatherDisplay:10.37,2013-07-04 20:09:00,
2013-07-04 13:14:00,104.5,62.8,29.65,ENE,63,2.0,2.0,26,0.00,SCT,,0.00,914.0,WeatherDisplay:10.37,2013-07-04 20:14:00,
2013-07-04 13:19:00,104.7,61.8,29.64,South,184,3.5,3.5,25,0.00,SCT,,0.00,914.0,WeatherDisplay:10.37,2013-07-04 20:19:00,
2013-07-04 13:24:00,105.1,62.2,29.64,SSW,203,3.5,3.5,25,0.00,SCT,,0.00,911.0,WeatherDisplay:10.37,2013-07-04 20:24:00,
2013-07-04 13:29:00,105.3,64.5,29.64,SSW,203,1.2,1.2,27,0.00,SCT,,0.00,912.0,WeatherDisplay:10.37,2013-07-04 20:29:00,
2013-07-04 13:34:00,105.7,63.8,29.64,South,184,2.3,2.3,26,0.00,SCT,,0.00,912.0,WeatherDisplay:10.37,2013-07-04 20:34:00,
2013-07-04 13:39:00,105.8,60.4,29.64,NNE,15,3.5,3.5,23,0.00,SCT,,0.00,911.0,WeatherDisplay:10.37,2013-07-04 20:39:00,
2013-07-04 13:44:00,106.1,64.1,29.64,SSW,201,3.5,3.5,26,0.00,SCT,,0.00,912.0,WeatherDisplay:10.37,2013-07-04 20:44:00,
2013-07-04 13:49:00,106.3,65.4,29.64,SW,225,2.3,2.3,27,0.00,SCT,,0.00,911.0,WeatherDisplay:10.37,2013-07-04 20:49:00,
2013-07-04 13:54:00,106.1,59.4,29.63,NNW,337,4.6,4.6,22,0.00,SCT,,0.00,905.0,WeatherDisplay:10.37,2013-07-04 20:54:00,
2013-07-04 13:59:00,106.2,61.9,29.63,NNE,17,3.5,3.5,24,0.00,SCT,,0.00,902.0,WeatherDisplay:10.37,2013-07-04 20:59:00,
2013-07-04 14:04:00,106.0,60.5,29.63,SSE,168,2.3,2.3,23,0.00,SCT,,0.00,898.0,WeatherDisplay:10.37,2013-07-04 21:04:00,
2013-07-04 14:09:00,106.3,59.5,29.63,South,180,2.3,2.3,22,0.00,SCT,,0.00,893.0,WeatherDisplay:10.37,2013-07-04 21:09:00,
2013-07-04 14:14:00,106.5,61.0,29.63,North,11,2.3,2.3,23,0.00,SCT,,0.00,891.0,WeatherDisplay:10.37,2013-07-04 21:14:00,
2013-07-04 14:19:00,106.5,58.4,29.63,ESE,102,4.6,4.6,21,0.00,SCT,,0.00,886.0,WeatherDisplay:10.37,2013-07-04 21:19:00,
2013-07-04 14:24:00,106.8,60.0,29.63,SSE,151,1.2,1.2,22,0.00,SCT,,0.00,881.0,WeatherDisplay:10.37,2013-07-04 21:24:00,
2013-07-04 14:29:00,106.7,59.9,29.62,NNE,23,6.9,6.9,22,0.00,SCT,,0.00,874.0,WeatherDisplay:10.37,2013-07-04 21:29:00,
2013-07-04 14:34:00,106.7,63.5,29.62,SSW,212,2.3,2.3,25,0.00,SCT,,0.00,868.0,WeatherDisplay:10.37,2013-07-04 21:34:00,
2013-07-04 14:39:00,106.8,58.7,29.62,SSW,204,5.8,5.8,21,0.00,SCT,,0.00,863.0,WeatherDisplay:10.37,2013-07-04 21:39:00,
2013-07-04 14:44:00,106.2,61.9,29.62,WSW,252,2.3,2.3,24,0.00,SCT,,0.00,856.0,WeatherDisplay:10.37,2013-07-04 21:44:00,
2013-07-04 14:49:00,106.3,58.2,29.62,SW,217,2.3,2.3,21,0.00,SCT,,0.00,853.0,WeatherDisplay:10.37,2013-07-04 21:49:00,
2013-07-04 14:56:00,106.0,58.0,29.61,ESE,105,0.0,0.1,21,0.00,SCT,,0.00,842.0,WeatherDisplay:10.37,2013-07-04 21:56:00,
2013-07-04 15:01:00,105.7,59.0,29.61,North,5,3.5,3.5,22,0.00,SCT,,0.00,837.0,WeatherDisplay:10.37,2013-07-04 22:01:00,
2013-07-04 15:06:00,105.0,57.2,29.61,ENE,65,1.2,1.2,21,0.00,SCT,,0.00,826.0,WeatherDisplay:10.37,2013-07-04 22:06:00,
2013-07-04 15:11:00,105.6,57.7,29.61,NE,52,2.3,0.0,21,0.00,SCT,,0.00,816.0,WeatherDisplay:10.37,2013-07-04 22:11:00,
2013-07-04 15:16:00,105.3,56.1,29.61,NNW,346,3.5,3.5,20,0.00,SCT,,0.00,809.0,WeatherDisplay:10.37,2013-07-04 22:16:00,
2013-07-04 15:21:00,104.5,62.8,29.61,SSE,165,1.2,1.2,26,0.00,SCT,,0.00,798.0,WeatherDisplay:10.37,2013-07-04 22:21:00,
2013-07-04 15:26:00,104.6,58.1,29.60,SSW,201,1.2,1.2,22,0.00,SCT,,0.00,789.0,WeatherDisplay:10.37,2013-07-04 22:26:00,
2013-07-04 15:31:00,103.7,59.8,29.60,SSW,196,2.0,2.0,24,0.00,SCT,,0.00,751.0,WeatherDisplay:10.37,2013-07-04 22:31:00,
2013-07-04 15:36:00,104.5,55.4,29.60,South,190,5.8,5.8,20,0.00,SCT,,0.00,202.0,WeatherDisplay:10.37,2013-07-04 22:36:00,
2013-07-04 15:41:00,103.2,57.0,29.60,South,176,1.2,1.2,22,0.00,SCT,,0.00,107.0,WeatherDisplay:10.37,2013-07-04 22:41:00,
2013-07-04 15:46:00,102.6,57.7,29.60,NW,308,2.3,2.3,23,0.00,SCT,,0.00,123.0,WeatherDisplay:10.37,2013-07-04 22:46:00,
2013-07-04 15:51:00,102.9,55.4,29.60,NNE,15,2.3,0.0,21,0.00,SCT,,0.00,134.0,WeatherDisplay:10.37,2013-07-04 22:51:00,
2013-07-04 15:56:00,101.9,55.9,29.60,North,350,0.0,0.0,22,0.00,SCT,,0.00,44.0,WeatherDisplay:10.37,2013-07-04 22:56:00,
2013-07-04 16:01:00,101.5,54.3,29.59,SSE,168,3.5,3.5,21,0.00,FEW,SCT,0.00,114.0,WeatherDisplay:10.37,2013-07-04 23:01:00,
2013-07-04 16:06:00,101.0,55.2,29.59,North,355,4.6,4.6,22,0.00,FEW,SCT,0.00,56.0,WeatherDisplay:10.37,2013-07-04 23:06:00,
2013-07-04 16:12:00,100.4,57.1,29.59,North,355,1.2,1.2,24,0.00,FEW,SCT,0.00,74.0,WeatherDisplay:10.37,2013-07-04 23:12:00,
2013-07-04 16:17:00,100.7,56.1,29.59,North,5,7.0,7.0,23,0.00,FEW,SCT,0.00,32.0,WeatherDisplay:10.37,2013-07-04 23:17:00,
2013-07-04 16:22:00,100.6,52.2,29.59,SSE,166,1.2,1.2,20,0.00,FEW,SCT,0.00,33.0,WeatherDisplay:10.37,2013-07-04 23:22:00,
2013-07-04 16:27:00,100.7,53.6,29.59,North,355,5.8,5.8,21,0.00,FEW,SCT,0.00,32.0,WeatherDisplay:10.37,2013-07-04 23:27:00,
2013-07-04 16:32:00,100.5,53.5,29.59,North,5,1.0,1.0,21,0.00,FEW,SCT,0.00,33.0,WeatherDisplay:10.37,2013-07-04 23:32:00,
2013-07-04 16:37:00,100.1,51.8,29.58,NNW,327,3.5,0.0,20,0.00,FEW,SCT,0.00,28.0,WeatherDisplay:10.37,2013-07-04 23:37:00,
2013-07-04 16:42:00,99.8,51.6,29.58,North,5,4.0,4.0,20,0.00,FEW,SCT,0.00,28.0,WeatherDisplay:10.37,2013-07-04 23:42:00,
2013-07-04 16:47:00,99.5,51.3,29.58,SSW,202,3.5,3.5,20,0.00,FEW,SCT,0.00,28.0,WeatherDisplay:10.37,2013-07-04 23:47:00,
2013-07-04 16:52:00,99.7,52.8,29.58,SW,219,1.2,1.2,21,0.00,FEW,SCT,0.00,26.0,WeatherDisplay:10.37,2013-07-04 23:52:00,
2013-07-04 16:57:00,99.2,54.9,29.58,South,180,1.2,1.2,23,0.00,FEW,SCT,0.00,26.0,WeatherDisplay:10.37,2013-07-04 23:57:00,
2013-07-04 17:02:00,98.8,52.1,29.58,SW,215,1.2,2.1,21,0.00,FEW,SCT,0.00,26.0,WeatherDisplay:10.37,2013-07-05 00:02:00,
2013-07-04 17:07:00,98.7,53.3,29.58,North,9,2.3,2.3,22,0.00,FEW,SCT,0.00,26.0,WeatherDisplay:10.37,2013-07-05 00:07:00,
2013-07-04 17:12:00,98.7,52.0,29.58,NE,55,3.0,3.0,21,0.00,FEW,SCT,0.00,25.0,WeatherDisplay:10.37,2013-07-05 00:12:00,
2013-07-04 17:17:00,98.6,49.2,29.57,SSW,198,1.2,1.2,19,0.00,FEW,SCT,0.00,25.0,WeatherDisplay:10.37,2013-07-05 00:17:00,
2013-07-04 17:22:00,97.9,52.6,29.57,NNE,22,3.0,3.0,22,0.00,FEW,SCT,0.00,25.0,WeatherDisplay:10.37,2013-07-05 00:22:00,
2013-07-04 17:27:00,97.4,50.9,29.57,NNW,332,0.0,0.0,21,0.00,FEW,SCT,0.00,25.0,WeatherDisplay:10.37,2013-07-05 00:27:00,
2013-07-04 17:32:00,97.3,52.1,29.57,NNW,330,0.0,0.0,22,0.00,FEW,SCT,0.00,23.0,WeatherDisplay:10.37,2013-07-05 00:32:00,
2013-07-04 17:37:00,96.5,53.8,29.57,NNW,329,0.0,0.0,24,0.00,FEW,SCT,0.00,23.0,WeatherDisplay:10.37,2013-07-05 00:37:00,
2013-07-04 17:42:00,96.5,51.4,29.57,North,5,3.5,3.5,22,0.00,FEW,SCT,0.00,23.0,WeatherDisplay:10.37,2013-07-05 00:42:00,
2013-07-04 17:47:00,97.6,47.0,29.57,North,9,3.5,3.5,18,0.00,FEW,SCT,0.00,21.0,WeatherDisplay:10.37,2013-07-05 00:47:00,
2013-07-04 17:52:00,97.3,52.1,29.57,NNW,342,1.0,0.0,22,0.00,FEW,SCT,0.00,21.0,WeatherDisplay:10.37,2013-07-05 00:52:00,
2013-07-04 17:57:00,96.9,47.8,29.57,North,355,3.5,3.5,19,0.00,FEW,SCT,0.00,21.0,WeatherDisplay:10.37,2013-07-05 00:57:00,
2013-07-04 18:02:00,97.0,53.1,29.57,North,355,1.2,1.2,23,0.00,FEW,SCT,0.00,21.0,WeatherDisplay:10.37,2013-07-05 01:02:00,
2013-07-04 18:07:00,96.3,54.8,29.57,North,355,0.0,0.0,25,0.00,FEW,SCT,0.00,21.0,WeatherDisplay:10.37,2013-07-05 01:07:00,
2013-07-04 18:12:00,95.2,53.8,29.57,North,355,0.0,0.0,25,0.00,FEW,SCT,0.00,19.0,WeatherDisplay:10.37,2013-07-05 01:12:00,
2013-07-04 18:17:00,94.6,54.4,29.57,North,355,0.0,0.0,26,0.00,FEW,SCT,0.00,19.0,WeatherDisplay:10.37,2013-07-05 01:17:00,
2013-07-04 18:22:00,94.2,57.1,29.57,North,355,1.2,0.0,29,0.00,FEW,SCT,0.00,19.0,WeatherDisplay:10.37,2013-07-05 01:22:00,
2013-07-04 18:27:00,93.8,56.7,29.57,ENE,69,1.2,1.2,29,0.00,FEW,SCT,0.00,19.0,WeatherDisplay:10.37,2013-07-05 01:27:00,
2013-07-04 18:32:00,93.8,56.7,29.57,ENE,69,0.0,0.0,29,0.00,FEW,SCT,0.00,18.0,WeatherDisplay:10.37,2013-07-05 01:32:00,
2013-07-04 18:37:00,93.6,56.6,29.57,NNW,336,0.0,0.0,29,0.00,FEW,SCT,0.00,18.0,WeatherDisplay:10.37,2013-07-05 01:37:00,
2013-07-04 18:42:00,93.2,56.2,29.57,NNE,32,0.0,0.0,29,0.00,FEW,SCT,0.00,18.0,WeatherDisplay:10.37,2013-07-05 01:42:00,
2013-07-04 18:47:00,93.3,56.3,29.57,NNE,22,1.2,0.0,29,0.00,FEW,SCT,0.00,18.0,WeatherDisplay:10.37,2013-07-05 01:47:00,
2013-07-04 18:52:00,93.2,56.2,29.57,NNE,22,0.0,0.0,29,0.00,FEW,SCT,0.00,16.0,WeatherDisplay:10.37,2013-07-05 01:52:00,
2013-07-04 18:57:00,92.6,57.6,29.56,NNE,22,0.0,0.0,31,0.00,FEW,SCT,0.00,16.0,WeatherDisplay:10.37,2013-07-05 01:57:00,
2013-07-04 19:02:00,92.0,58.8,29.56,NNE,22,1.2,0.0,33,0.00,FEW,SCT,0.00,16.0,WeatherDisplay:10.37,2013-07-05 02:02:00,
2013-07-04 19:07:00,91.4,58.3,29.56,NNE,22,0.0,0.0,33,0.00,FEW,SCT,0.00,16.0,WeatherDisplay:10.37,2013-07-05 02:07:00,
2013-07-04 19:12:00,90.7,58.5,29.56,NNE,22,0.0,0.0,34,0.00,FEW,SCT,0.00,14.0,WeatherDisplay:10.37,2013-07-05 02:12:00,
2013-07-04 19:17:00,90.3,58.1,29.56,NNE,22,0.0,0.0,34,0.00,FEW,SCT,0.00,14.0,WeatherDisplay:10.37,2013-07-05 02:17:00,
2013-07-04 19:22:00,89.9,57.8,29.56,NNE,22,0.0,0.0,34,0.00,FEW,SCT,0.00,14.0,WeatherDisplay:10.37,2013-07-05 02:22:00,
2013-07-04 19:27:00,89.4,58.9,29.56,NNE,22,0.0,0.0,36,0.00,FEW,SCT,0.00,12.0,WeatherDisplay:10.37,2013-07-05 02:27:00,
2013-07-04 19:32:00,89.0,57.8,29.56,NNE,22,0.0,0.0,35,0.00,FEW,SCT,0.00,12.0,WeatherDisplay:10.37,2013-07-05 02:32:00,
2013-07-04 19:37:00,88.5,58.1,29.56,NNE,22,1.2,0.0,36,0.00,FEW,SCT,0.00,12.0,WeatherDisplay:10.37,2013-07-05 02:37:00,
2013-07-04 19:42:00,87.9,58.4,29.56,NNE,22,0.0,0.0,37,0.00,FEW,SCT,0.00,11.0,WeatherDisplay:10.37,2013-07-05 02:42:00,
2013-07-04 19:47:00,87.5,58.8,29.56,NNE,22,0.0,0.0,38,0.00,FEW,SCT,0.00,11.0,WeatherDisplay:10.37,2013-07-05 02:47:00,
2013-07-04 19:52:00,87.0,59.8,29.56,NNE,22,0.0,0.0,40,0.00,FEW,SCT,0.00,11.0,WeatherDisplay:10.37,2013-07-05 02:52:00,
2013-07-04 19:57:00,86.6,59.4,29.56,NNE,22,0.0,0.0,40,0.00,FEW,SCT,0.00,9.0,WeatherDisplay:10.37,2013-07-05 02:57:00,
2013-07-04 20:02:00,86.1,59.6,29.56,NNE,22,0.0,0.0,41,0.00,CLR,SCT,0.00,9.0,WeatherDisplay:10.37,2013-07-05 03:02:00,
2013-07-04 20:07:00,85.7,59.3,29.56,NNE,22,0.0,0.0,41,0.00,CLR,SCT,0.00,7.0,WeatherDisplay:10.37,2013-07-05 03:07:00,
2013-07-04 20:12:00,85.4,59.7,29.56,NNE,22,0.0,0.0,42,0.00,CLR,SCT,0.00,7.0,WeatherDisplay:10.37,2013-07-05 03:12:00,
2013-07-04 20:17:00,85.1,60.1,29.56,NNE,22,0.0,0.0,43,0.00,CLR,SCT,0.00,5.0,WeatherDisplay:10.37,2013-07-05 03:17:00,
2013-07-04 20:22:00,84.7,61.0,29.56,NNE,22,0.0,0.0,45,0.00,CLR,SCT,0.00,5.0,WeatherDisplay:10.37,2013-07-05 03:22:00,
2013-07-04 20:27:00,84.2,61.8,29.56,NNE,22,1.2,1.2,47,0.00,CLR,SCT,0.00,0.0,WeatherDisplay:10.37,2013-07-05 03:27:00,
2013-07-04 20:32:00,83.8,62.0,29.56,NNE,22,0.0,0.0,48,0.00,CLR,SCT,0.00,0.0,WeatherDisplay:10.37,2013-07-05 03:32:00,
2013-07-04 20:37:00,83.4,61.7,29.56,NNE,22,0.0,0.0,48,0.00,CLR,SCT,0.00,0.0,WeatherDisplay:10.37,2013-07-05 03:37:00,
2013-07-04 20:42:00,83.0,61.9,29.56,NNE,22,1.0,0.0,49,0.00,CLR,SCT,0.00,0.0,WeatherDisplay:10.37,2013-07-05 03:42:00,
2013-07-04 20:47:00,82.8,61.7,29.56,NNE,22,1.2,1.2,49,0.00,CLR,SCT,0.00,0.0,WeatherDisplay:10.37,2013-07-05 03:47:00,
2013-07-04 20:52:00,82.3,61.2,29.57,NNE,22,0.0,0.0,49,0.00,CLR,SCT,0.00,0.0,WeatherDisplay:10.37,2013-07-05 03:52:00,
2013-07-04 20:57:00,82.0,62.1,29.57,NNE,22,0.0,0.0,51,0.00,CLR,SCT,0.00,0.0,WeatherDisplay:10.37,2013-07-05 03:57:00,
2013-07-04 21:01:00,81.8,61.3,29.57,NNE,22,0.0,0.0,50,0.00,CLR,SCT,0.00,0.0,WeatherDisplay:10.37,2013-07-05 04:01:00,
2013-07-04 21:06:00,81.4,62.1,29.57,NNE,22,0.0,0.0,52,0.00,CLR,SCT,0.00,0.0,WeatherDisplay:10.37,2013-07-05 04:06:00,
2013-07-04 21:11:00,81.1,61.8,29.57,NNE,22,0.0,0.0,52,0.00,CLR,SCT,0.00,0.0,WeatherDisplay:10.37,2013-07-05 04:11:00,
2013-07-04 21:16:00,80.9,62.2,29.57,NNE,22,0.0,0.0,53,0.00,CLR,SCT,0.00,0.0,WeatherDisplay:10.37,2013-07-05 04:16:00,
2013-07-04 21:21:00,80.6,61.9,29.57,NNE,22,0.0,0.0,53,0.00,CLR,SCT,0.00,0.0,WeatherDisplay:10.37,2013-07-05 04:21:00,
2013-07-04 21:26:00,80.3,61.6,29.57,NNE,22,0.0,0.0,53,0.00,CLR,SCT,0.00,0.0,WeatherDisplay:10.37,2013-07-05 04:26:00,
2013-07-04 21:31:00,80.2,61.0,29.57,NNE,22,0.0,0.0,52,0.00,CLR,SCT,0.00,0.0,WeatherDisplay:10.37,2013-07-05 04:31:00,
2013-07-04 21:36:00,80.0,60.8,29.58,NNE,22,1.2,0.0,52,0.00,CLR,SCT,0.00,0.0,WeatherDisplay:10.37,2013-07-05 04:36:00,
2013-07-04 21:41:00,79.8,61.1,29.58,NNE,22,0.0,0.0,53,0.00,CLR,SCT,0.00,0.0,WeatherDisplay:10.37,2013-07-05 04:41:00,
2013-07-04 21:46:00,79.7,61.1,29.58,NNE,22,0.0,0.0,53,0.00,CLR,SCT,0.00,0.0,WeatherDisplay:10.37,2013-07-05 04:46:00,
2013-07-04 21:51:00,79.7,61.6,29.58,NNE,22,0.0,0.0,54,0.00,CLR,SCT,0.00,0.0,WeatherDisplay:10.37,2013-07-05 04:51:00,
2013-07-04 21:56:00,79.4,61.3,29.58,NNE,22,0.0,0.0,54,0.00,CLR,SCT,0.00,0.0,WeatherDisplay:10.37,2013-07-05 04:56:00,
2013-07-04 22:01:00,79.2,60.6,29.58,NNE,22,0.0,0.0,53,0.00,CLR,SCT,0.00,0.0,WeatherDisplay:10.37,2013-07-05 05:01:00,
2013-07-04 22:06:00,79.1,61.0,29.58,NNE,22,0.0,0.0,54,0.00,CLR,SCT,0.00,0.0,WeatherDisplay:10.37,2013-07-05 05:06:00,
2013-07-04 22:11:00,78.9,60.8,29.58,NNE,22,0.0,0.0,54,0.00,CLR,SCT,0.00,0.0,WeatherDisplay:10.37,2013-07-05 05:11:00,
2013-07-04 22:16:00,78.8,61.3,29.58,NNE,22,0.0,0.0,55,0.00,CLR,SCT,0.00,0.0,WeatherDisplay:10.37,2013-07-05 05:16:00,
2013-07-04 22:21:00,78.5,61.5,29.58,NNE,22,0.0,0.0,56,0.00,CLR,SCT,0.00,0.0,WeatherDisplay:10.37,2013-07-05 05:21:00,
2013-07-04 22:26:00,78.4,60.9,29.58,NNE,22,1.2,1.2,55,0.00,CLR,SCT,0.00,0.0,WeatherDisplay:10.37,2013-07-05 05:26:00,
2013-07-04 22:32:00,78.3,60.8,29.58,NNE,22,1.2,1.2,55,0.00,CLR,SCT,0.00,0.0,WeatherDisplay:10.37,2013-07-05 05:32:00,
2013-07-04 22:37:00,78.3,60.8,29.58,NNE,22,0.0,0.0,55,0.00,CLR,SCT,0.00,0.0,WeatherDisplay:10.37,2013-07-05 05:37:00,
2013-07-04 22:42:00,78.0,60.5,29.58,NNE,22,0.0,0.0,55,0.00,CLR,SCT,0.00,0.0,WeatherDisplay:10.37,2013-07-05 05:42:00,
2013-07-04 22:47:00,77.8,60.8,29.58,NNE,22,0.0,0.0,56,0.00,CLR,SCT,0.00,0.0,WeatherDisplay:10.37,2013-07-05 05:47:00,
2013-07-04 22:52:00,77.6,60.7,29.58,NNE,22,0.0,0.0,56,0.00,CLR,SCT,0.00,0.0,WeatherDisplay:10.37,2013-07-05 05:52:00,
2013-07-04 22:57:00,77.6,60.7,29.58,NNE,22,0.0,0.0,56,0.00,CLR,SCT,0.00,0.0,WeatherDisplay:10.37,2013-07-05 05:57:00,
2013-07-04 23:02:00,77.5,60.6,29.58,NNE,22,0.0,0.0,56,0.00,CLR,SCT,0.00,0.0,WeatherDisplay:10.37,2013-07-05 06:02:00,
2013-07-04 23:07:00,77.3,60.4,29.58,NNE,22,0.0,0.0,56,0.00,CLR,SCT,0.00,0.0,WeatherDisplay:10.37,2013-07-05 06:07:00,
2013-07-04 23:12:00,77.1,60.7,29.58,NNE,22,0.0,0.0,57,0.00,CLR,SCT,0.00,0.0,WeatherDisplay:10.37,2013-07-05 06:12:00,
2013-07-04 23:17:00,77.0,60.1,29.58,NNE,22,0.0,0.0,56,0.00,CLR,SCT,0.00,0.0,WeatherDisplay:10.37,2013-07-05 06:17:00,
2013-07-04 23:22:00,76.9,60.0,29.58,NNE,22,0.0,0.0,56,0.00,CLR,SCT,0.00,0.0,WeatherDisplay:10.37,2013-07-05 06:22:00,
2013-07-04 23:27:00,76.8,59.9,29.58,NNE,22,0.0,0.0,56,0.00,CLR,SCT,0.00,0.0,WeatherDisplay:10.37,2013-07-05 06:27:00,
2013-07-04 23:32:00,76.8,60.4,29.57,NNE,22,0.0,0.0,57,0.00,CLR,SCT,0.00,0.0,WeatherDisplay:10.37,2013-07-05 06:32:00,
2013-07-04 23:37:00,76.8,59.9,29.58,NNE,22,1.0,0.0,56,0.00,CLR,SCT,0.00,0.0,WeatherDisplay:10.37,2013-07-05 06:37:00,
2013-07-04 23:42:00,76.7,59.8,29.58,NNE,22,0.0,0.0,56,0.00,CLR,SCT,0.00,0.0,WeatherDisplay:10.37,2013-07-05 06:42:00,
2013-07-04 23:47:00,76.7,59.3,29.58,NNE,22,0.0,0.0,55,0.00,CLR,SCT,0.00,0.0,WeatherDisplay:10.37,2013-07-05 06:47:00,
2013-07-04 23:52:00,76.6,59.7,29.57,NNE,22,0.0,0.0,56,0.00,CLR,SCT,0.00,0.0,WeatherDisplay:10.37,2013-07-05 06:52:00,
2013-07-04 23:57:00,76.4,59.5,29.57,NNE,22,1.2,1.2,56,0.00,CLR,SCT,0.00,0.0,WeatherDisplay:10.37,2013-07-05 06:57:00,